Weather History for Durango, CO

Change the Weather History Date:

Sunday, November 18, 2012

  Actual Average Record
Temperature  
Mean Temperature 42 °F 35 °F  
Max Temperature 54 °F 48 °F 64 °F (2008)
Min Temperature 29 °F 21 °F 10 °F (1980)
Degree Days  
Heating Degree Days 23 30  
Month to date heating degree days 466 492  
Since 1 July heating degree days 1114 1280  
Cooling Degree Days 0 0  
Month to date cooling degree days 0 0  
Year to date cooling degree days 477 243  
Moisture  
Dew Point 28 °F    
Average Humidity 64    
Maximum Humidity 92    
Minimum Humidity 35    
Precipitation  
Precipitation 0.00 in 0.06 in 0.84 in (1983)
Month to date precipitation 1.10 1.05  
Year to date precipitation 6.91 14.27  
Sea Level Pressure  
Sea Level Pressure 30.18 in    
Wind  
Wind Speed 4 mph (WSW)    
Max Wind Speed 15 mph    
Max Gust Speed 20 mph    
Visibility 10 miles    
Events      
T = Trace of Precipitation, MM = Missing Value Source: NWS Daily Summary

Daily Weather History Graph

Daily Weather History Graph

Search for Another Location

Airport:

Trip Planner

Search our weather history database for the weather conditions in past years. The results will help you decide how hot, cold, wet, or windy it might be!

Date:

Astronomy

Nov. 18, 2012 Rise Set
Actual Time 6:53 AM MST 4:58 PM MST
Civil Twilight 6:25 AM MST 5:26 PM MST
Nautical Twilight 5:54 AM MST 5:58 PM MST
Astronomical Twilight 5:23 AM MST 6:29 PM MST
Moon 11:23 AM MST (11/18) 10:19 PM MST (11/18)
Length of Visible Light 11h 01m
Length of Day
10h 05m
Waxing Crescent, 31% of the Moon is Illuminated
Nov 18
Waxing Crescent
Nov 20
First Quarter
Nov 28
Full
Dec 6
Last Quarter
Dec 13
New

Hourly Weather History & Observations

Time (MST) Temp. Windchill Dew Point Humidity Pressure Visibility Wind Dir Wind Speed Gust Speed Precip Events Conditions
12:53 AM 35.1 °F 32.2 °F 27.0 °F 72% 30.12 in 10.0 mi NE 3.5 mph - N/A   Mostly Cloudy
1:53 AM 34.0 °F 29.8 °F 27.0 °F 75% 30.12 in 10.0 mi ENE 4.6 mph - N/A   Overcast
2:53 AM 35.1 °F 32.2 °F 28.0 °F 76% 30.11 in 10.0 mi East 3.5 mph - N/A   Overcast
3:53 AM 33.1 °F - 28.0 °F 82% 30.12 in 10.0 mi Calm Calm - N/A   Mostly Cloudy
4:53 AM 33.1 °F - 28.0 °F 82% 30.14 in 10.0 mi Calm Calm - N/A   Mostly Cloudy
5:53 AM 30.9 °F - 28.9 °F 92% 30.18 in 10.0 mi Calm Calm - N/A   Clear
6:53 AM 28.9 °F 23.9 °F 27.0 °F 92% 30.22 in 10.0 mi Variable 4.6 mph - N/A   Partly Cloudy
7:53 AM 34.0 °F - 30.0 °F 85% 30.21 in 10.0 mi Calm Calm - N/A   Mostly Cloudy
8:53 AM 39.0 °F - 30.9 °F 73% 30.20 in 10.0 mi Calm Calm - N/A   Mostly Cloudy
9:53 AM 46.0 °F 43.9 °F 30.9 °F 56% 30.19 in 10.0 mi ENE 4.6 mph - N/A   Partly Cloudy
10:53 AM 48.0 °F - 30.9 °F 52% 30.18 in 10.0 mi Calm Calm - N/A   Partly Cloudy
11:53 AM 51.1 °F - 30.9 °F 46% 30.15 in 10.0 mi WSW 9.2 mph - N/A   Clear
12:53 PM 53.1 °F - 30.0 °F 41% 30.11 in 10.0 mi SSW 8.1 mph - N/A   Partly Cloudy
1:53 PM 52.0 °F - 28.0 °F 40% 30.10 in 10.0 mi SSW 6.9 mph - N/A   Clear
2:53 PM 52.0 °F - 27.0 °F 38% 30.09 in 10.0 mi South 4.6 mph - N/A   Partly Cloudy
3:53 PM 53.1 °F - 26.1 °F 35% 30.12 in 10.0 mi WSW 10.4 mph - N/A   Clear
4:53 PM 48.9 °F - 28.0 °F 44% 30.15 in 10.0 mi SW 8.1 mph - N/A   Clear
5:53 PM 46.0 °F 43.9 °F 25.0 °F 44% 30.19 in 10.0 mi WSW 4.6 mph - N/A   Clear
6:53 PM 41.0 °F 39.0 °F 26.1 °F 55% 30.25 in 10.0 mi SW 3.5 mph - N/A   Clear
7:53 PM 39.9 °F 37.8 °F 26.1 °F 58% 30.24 in 10.0 mi North 3.5 mph - N/A   Clear
8:53 PM 33.1 °F 28.7 °F 25.0 °F 72% 30.27 in 10.0 mi ENE 4.6 mph - N/A   Clear
9:53 PM 32.0 °F 27.5 °F 25.0 °F 75% 30.26 in 10.0 mi North 4.6 mph - N/A   Clear
10:53 PM 32.0 °F 28.7 °F 25.0 °F 75% 30.26 in 10.0 mi NNW 3.5 mph - N/A   Mostly Cloudy
11:53 PM 30.9 °F - 25.0 °F 79% 30.26 in 10.0 mi Calm Calm - N/A   Mostly Cloudy